Location: Brantley
(31.5822°N, 86.2569°W)
Time: 23:44:46
(UTC+00:00)

Vanguard 2 - Pass Details

Date: 19 February 2026
Orbit: 553 x 2896 km, 32.9° (Epoch: 9 March)

Event Time Altitude Azimuth Distance (km) Brightness Sun altitude
Rises 08:24:15 0° 216° (SW) 5,421 - -50.8°
Reaches altitude 10° 08:29:08 10° 205° (SSW) 3,973 - -49.8°
Maximum altitude 08:36:35 25° 156° (SSE) 2,294 - -48.4°
Exits shadow 08:41:25 12° 106° (ESE) 2,606 10.6 -47.4°
Drops below altitude 10° 08:41:48 10° 103° (ESE) 2,688 10.7 -47.3°
Sets 08:44:24 0° 89° (E) 3,378 11.5 -46.8°
